Baltimore Martin, MD

7:04 AM EDT on August 17, 2017 (GMT -0400)
Martin State

Weather History for KMTN - October, 2011

Change the Weather History Date:

Monday, October 24, 2011

  Actual Average Record
Temperature  
Mean Temperature 54 °F -  
Max Temperature 64 °F 60 °F 75 °F (2001)
Min Temperature 44 °F 43 °F 35 °F (1997)
Degree Days  
Heating Degree Days 11    
Growing Degree Days 4 (Base 50)    
Moisture  
Dew Point 49 °F    
Average Humidity 93    
Maximum Humidity 100    
Minimum Humidity 72    
Precipitation  
Precipitation 0.00 in - - ()
Sea Level Pressure  
Sea Level Pressure 30.10 in    
Wind  
Wind Speed 1 mph (South)    
Max Wind Speed 15 mph    
Max Gust Speed -    
Visibility 6 miles    
Events Rain    
Averages and records for this station are not official NWS values.
T = Trace of Precipitation, MM = Missing Value Source: NWS Daily Summary

Daily Weather History Graph

Daily Weather History Graph

Search for Another Location

Airport or City:

Trip Planner

Search our weather history database for the weather conditions in past years. The results will help you decide how hot, cold, wet, or windy it might be!

Date:

Astronomy

Oct. 24, 2011 Rise Set
Actual Time 7:24 AM EDT 6:14 PM EDT
Civil Twilight 6:57 AM EDT 6:41 PM EDT
Nautical Twilight 6:25 AM EDT 7:13 PM EDT
Astronomical Twilight 5:54 AM EDT 7:44 PM EDT
Moon 4:41 AM EDT (10/24) 4:37 PM EDT (10/24)
Length of Visible Light 11h 44m
Length of Day
10h 50m
Waning Crescent, 7% of the Moon is Illuminated
Oct 24
Waning Crescent
Oct 26
New
Nov 2
First Quarter
Nov 10
Full
Nov 18
Last Quarter

Hourly Weather History & Observations

Time (EDT) Temp. Windchill Dew Point Humidity Pressure Visibility Wind Dir Wind Speed Gust Speed Precip Events Conditions
12:09 AM 46.4 °F - 46.4 °F 100% 30.15 in 7.0 mi Calm Calm - N/A   Clear
12:30 AM 46.4 °F - 46.4 °F 100% 30.15 in 5.0 mi Calm Calm - N/A   Clear
12:48 AM 46.4 °F - 46.4 °F 100% 30.15 in 4.0 mi Calm Calm - N/A   Clear
1:09 AM 46.4 °F - 46.4 °F 100% 30.15 in 3.0 mi Calm Calm - N/A   Clear
1:27 AM 46.4 °F - 46.4 °F 100% 30.15 in 4.0 mi Calm Calm - N/A   Clear
1:48 AM 44.6 °F - 44.6 °F 100% 30.15 in 7.0 mi Calm Calm - N/A   Clear
2:06 AM 46.4 °F - 46.4 °F 100% 30.14 in 5.0 mi Calm Calm - N/A   Clear
2:27 AM 44.6 °F - 44.6 °F 100% 30.14 in 3.0 mi Calm Calm - N/A   Clear
2:45 AM 44.6 °F - 44.6 °F 100% 30.14 in 5.0 mi Calm Calm - N/A   Clear
3:03 AM 44.6 °F - 44.6 °F 100% 30.14 in 7.0 mi Calm Calm - N/A   Clear
3:24 AM 44.6 °F - 44.6 °F 100% 30.13 in 5.0 mi Calm Calm - N/A   Clear
3:42 AM 44.6 °F - 44.6 °F 100% 30.12 in 5.0 mi Calm Calm - N/A   Clear
4:03 AM 44.6 °F - 44.6 °F 100% 30.12 in 7.0 mi Calm Calm - N/A   Clear
4:21 AM 44.6 °F - 44.6 °F 100% 30.12 in 5.0 mi Calm Calm - N/A   Clear
4:42 AM 44.6 °F - 44.6 °F 100% 30.11 in 5.0 mi Calm Calm - N/A   Clear
5:00 AM 44.6 °F - 44.6 °F 100% 30.11 in 5.0 mi Calm Calm - N/A   Clear
5:21 AM 44.6 °F - 44.6 °F 100% 30.11 in 3.0 mi Calm Calm - N/A   Mist
5:30 AM 44.6 °F - 44.6 °F 100% 30.11 in 4.0 mi Calm Calm - N/A   Clear
5:50 AM 46.4 °F - 46.4 °F 100% 30.11 in 5.0 mi Calm Calm - N/A   Scattered Clouds
6:50 AM 46.4 °F - 46.4 °F 100% 30.11 in 5.0 mi Calm Calm - N/A   Mostly Cloudy
7:45 AM 44.6 °F 43.1 °F 44.6 °F 100% 30.12 in 3.0 mi WNW 3.5 mph - N/A   Mostly Cloudy
8:50 AM 50.0 °F - 50.0 °F 100% 30.12 in 3.0 mi Calm Calm - N/A   Overcast
9:45 AM 53.6 °F - 53.6 °F 100% 30.13 in 3.0 mi Calm Calm - N/A   Overcast
10:45 AM 59.0 °F - 53.6 °F 82% 30.12 in 5.0 mi South 8.1 mph - N/A   Mostly Cloudy
11:55 AM 62.6 °F - 53.6 °F 72% 30.11 in 5.0 mi SSE 10.4 mph - N/A   Mostly Cloudy
12:50 PM 62.6 °F - 53.6 °F 72% 30.08 in 5.0 mi SSE 5.8 mph - N/A   Mostly Cloudy
1:45 PM 62.6 °F - 55.4 °F 77% 30.05 in 5.0 mi SE 6.9 mph - N/A   Mostly Cloudy
2:45 PM 62.6 °F - 55.4 °F 77% 30.03 in 7.0 mi SE 5.8 mph - N/A   Mostly Cloudy
3:45 PM 64.4 °F - 55.4 °F 73% 30.02 in 10.0 mi SE 4.6 mph - N/A   Scattered Clouds
4:45 PM 64.4 °F - 55.4 °F 73% 29.99 in 10.0 mi ESE 4.6 mph - N/A   Scattered Clouds
5:45 PM 60.8 °F - 55.4 °F 82% 30.00 in 10.0 mi SSE 15.0 mph - N/A   Scattered Clouds
7:50 PM 60.8 °F - 55.4 °F 82% 30.04 in 10.0 mi NW 3.5 mph - N/A Rain Light Rain
8:55 PM 59.0 °F - 53.6 °F 82% 30.05 in 10.0 mi Calm Calm - N/A   Scattered Clouds
9:45 PM 57.2 °F - 53.6 °F 88% 30.05 in 10.0 mi Calm Calm - N/A   Scattered Clouds
10:03 PM 55.4 °F - 51.8 °F 88% 30.05 in 10.0 mi SW 3.5 mph - N/A   Clear
10:24 PM 55.4 °F - 51.8 °F 88% 30.05 in 10.0 mi Calm Calm - N/A   Clear
10:42 PM 53.6 °F - 51.8 °F 94% 30.05 in 10.0 mi WSW 3.5 mph - N/A   Clear
11:00 PM 53.6 °F - 51.8 °F 94% 30.05 in 10.0 mi West 3.5 mph - N/A   Clear
11:21 PM 51.8 °F - 50.0 °F 94% 30.05 in 10.0 mi Calm Calm - N/A   Clear
11:39 PM 53.6 °F - 50.0 °F 88% 30.06 in 10.0 mi Calm Calm - N/A   Clear